FW5955 Weather Reports


time (UTC)temp
C
wind
direction
speed
KPH
gust
KPH
rain 1hr
cm
rain 24hr
cm
rain mn
cm
humidity
%
barometer
mb
20260903194519 18 153 6.4 14.5 0.00 0.00 0.00 86 1019.2
20260903193019 18 151 6.4 12.9 0.00 0.00 0.00 84 1019.2
20260903191525 18 166 8.0 16.1 0.00 0.00 0.00 84 1019.4
20260903190015 19 114 8.0 14.5 0.00 0.00 0.00 84 1019.5
20260903184513 19 145 8.0 16.1 0.00 0.00 0.00 82 1019.8
20260903183021 19 196 6.4 16.1 0.00 0.00 0.00 83 1019.9
20260903181509 19 167 4.8 14.5 0.00 0.00 0.00 83 1020.1
20260903180015 19 165 4.8 14.5 0.00 0.00 0.00 83 1020.3
20260903174506 18 155 6.4 14.5 0.00 0.00 0.00 82 1020.4
20260903173006 18 177 9.7 17.7 0.00 0.00 0.00 82 1020.4
20260903171504 18 174 6.4 16.1 0.00 0.00 0.00 83 1020.5
20260903170002 18 121 8.0 14.5 0.00 0.00 0.00 81 1020.7
20260903164601 18 224 9.7 16.1 0.00 0.00 0.00 80 1020.8
20260903163135 18 193 6.4 16.1 0.00 0.00 0.00 81 1020.9
20260903161600 18 152 9.7 16.1 0.00 0.00 0.00 80 1020.9
20260903154557 18 117 4.8 17.7 0.00 0.00 0.00 83 1020.9
20260903153056 18 165 6.4 17.7 0.00 0.00 0.00 82 1021.1
20260903151555 18 223 3.2 17.7 0.00 0.00 0.00 83 1021.2
20260903150057 18 139 4.8 14.5 0.00 0.00 0.00 82 1021.1
20260903144554 18 165 6.4 14.5 0.00 0.00 0.00 81 1021.1
20260903143053 19 214 1.6 8.0 0.00 0.00 0.00 81 1021.3
20260903141549 19 149 3.2 16.1 0.00 0.00 0.00 82 1021.5
20260903140049 19 195 4.8 14.5 0.00 0.00 0.00 82 1021.8
20260903134609 18 156 6.4 14.5 0.00 0.00 0.00 82 1021.5
20260903133051 18 107 3.2 12.9 0.00 0.00 0.00 84 1021.5
20260903131545 18 179 4.8 12.9 0.00 0.00 0.00 84 1021.5
20260903130049 18 158 1.6 14.5 0.00 0.00 0.00 85 1021.4
20260903124548 18 172 4.8 14.5 0.00 0.00 0.00 85 1021.3
20260903123044 18 129 4.8 14.5 0.00 0.00 0.00 85 1021.5
20260903121550 18 200 3.2 12.9 0.00 0.00 0.00 85 1021.5
20260903120056 18 174 1.6 9.7 0.00 0.00 0.00 85 1021.7
20260903114557 18 208 4.8 12.9 0.00 0.00 0.00 85 1021.8
20260903113040 18 183 6.4 14.5 0.00 0.00 0.00 84 1021.9
20260903111538 18 148 1.6 11.3 0.00 0.00 0.00 85 1021.8
20260903110037 18 149 1.6 11.3 0.00 0.00 0.00 85 1021.8
20260903104538 18 224 6.4 11.3 0.00 0.00 0.00 85 1021.8
20260903103037 18 129 3.2 11.3 0.00 0.00 0.00 84 1021.9
20260903101538 18 196 3.2 11.3 0.00 0.00 0.00 84 1021.7
20260903100044 18 181 3.2 9.7 0.00 0.00 0.00 83 1021.7
20260903094537 18 169 3.2 12.9 0.00 0.00 0.00 83 1021.7
20260903093034 18 193 3.2 8.0 0.00 0.00 0.00 83 1021.7
20260903091532 18 180 1.6 8.0 0.00 0.00 0.00 83 1021.8
20260903090033 18 189 1.6 11.3 0.00 0.00 0.00 82 1021.9
20260903084532 18 234 3.2 9.7 0.00 0.03 0.00 83 1021.9
20260903083041 18 248 3.2 11.3 0.00 0.03 0.00 83 1021.9
20260903081530 18 219 3.2 9.7 0.00 0.03 0.00 82 1021.8
20260903080028 18 207 1.6 9.7 0.00 0.03 0.00 83 1021.9
20260903074528 18 195 3.2 12.9 0.00 0.03 0.00 84 1022.0
20260903073027 18 236 3.2 0.0 0.00 0.00 0.00 84 1022.1
20260903071529 18 250 1.6 11.3 0.00 0.03 0.00 84 1022.1
20260903070025 18 177 3.2 8.0 0.00 0.03 0.00 85 1022.0
20260903064525 18 218 3.2 11.3 0.00 0.03 0.00 84 1022.2
20260903063024 18 179 3.2 9.7 0.00 0.03 0.00 85 1022.1
20260903061539 18 145 4.8 14.5 0.00 0.03 0.00 84 1022.0
20260903060023 18 130 3.2 14.5 0.00 0.03 0.00 85 1022.1
20260903054523 18 205 3.2 11.3 0.00 0.03 0.00 85 1021.9
20260903053022 18 190 3.2 11.3 0.00 0.03 0.00 85 1021.8
20260903051519 18 255 0.0 9.7 0.00 0.03 0.00 85 1022.0
20260903050019 18 221 1.6 6.4 0.00 0.03 0.00 85 1022.1
20260903044518 18 248 1.6 6.4 0.00 0.03 0.00 85 1022.2
20260903043018 18 233 1.6 4.8 0.00 0.03 0.00 84 1022.3
20260903041528 18 224 1.6 6.4 0.00 0.03 0.00 85 1022.3
20260903040018 18 178 1.6 6.4 0.00 0.03 0.00 85 1022.4
20260903034515 18 216 6.4 9.7 0.00 0.03 0.00 84 1022.5
20260903033016 18 224 1.6 8.0 0.00 0.03 0.00 85 1022.4
20260903031520 18 186 1.6 8.0 0.00 0.03 0.00 86 1022.1
20260903030012 18 197 1.6 6.4 0.00 0.03 0.00 86 1022.1
20260903024508 18 167 1.6 9.7 0.00 0.03 0.03 87 1022.0
20260903023009 18 167 1.6 11.3 0.00 0.03 0.03 87 1022.2
20260903021507 18 224 1.6 6.4 0.00 0.03 0.03 87 1022.1
20260903020024 18 217 1.6 9.7 0.00 0.03 0.03 88 1022.3
20260903014506 18 210 1.6 6.4 0.00 0.03 0.03 89 1022.2
20260903013006 18 233 1.6 4.8 0.00 0.03 0.03 89 1022.5
20260903011505 17 206 0.0 4.8 0.00 0.03 0.03 88 1022.6
20260903010009 18 226 0.0 4.8 0.00 0.03 0.03 88 1022.8
20260903004506 18 234 0.0 4.8 0.00 0.03 0.03 88 1022.7
20260903003004 17 230 1.6 6.4 0.00 0.03 0.03 88 1022.8
20260903001505 18 184 1.6 8.0 0.00 0.03 0.03 88 1022.6
20260903000003 18 268 1.6 6.4 0.00 0.03 0.03 88 1022.5
20260902234503 18 236 1.6 6.4 0.00 0.03 0.03 88 1022.5
20260902233003 18 259 1.6 6.4 0.00 0.03 0.03 87 1022.5
20260902231502 18 200 1.6 6.4 0.00 0.03 0.03 86 1022.3
20260902230001 18 224 1.6 6.4 0.00 0.03 0.03 85 1022.4
20260902224501 18 226 3.2 6.4 0.00 0.03 0.03 86 1022.4
20260902223002 18 148 0.0 6.4 0.00 0.03 0.03 85 1022.2
20260902221600 18 159 0.0 6.4 0.00 0.03 0.03 85 1022.2
20260902220108 18 155 0.0 9.7 0.00 0.03 0.03 85 1022.4
20260902214559 18 158 0.0 1.6 0.00 0.03 0.03 85 1022.4
20260902213101 18 148 4.8 9.7 0.00 0.03 0.03 84 1022.5
20260902211600 19 176 0.0 6.4 0.00 0.03 0.03 83 1022.6
20260902210058 19 198 4.8 8.0 0.00 0.03 0.03 83 1022.9
20260902204558 19 148 1.6 6.4 0.00 0.03 0.03 84 1022.9
20260902203100 19 202 3.2 9.7 0.00 0.03 0.03 83 1023.0
20260902201600 20 156 4.8 8.0 0.00 0.03 0.03 82 1022.9
20260902200056 20 162 6.4 11.3 0.00 0.03 0.03 81 1022.9